• In Belgium
  • List of Countries
  • For 7 days
  • Water Temperature
  • Satellite Maps
  • Weather Map
  • Weather Widgets
  • user-avatar
    Login

    Hourly Weather Bolehov

    Today, 17 July, Tuesday

    Time Temperature Precipitation Wind Pressure Humidity
    00:00 +15°C° 0 mm 2 mps 722 mmHg 96%
    01:00 +15°C° 0 mm 2 mps 722 mmHg 96%
    02:00 +14°C° 0 mm 2 mps 722 mmHg 95%
    03:00 +14°C° 0 mm 2 mps 722 mmHg 96%
    04:00 +14°C° 0 mm 2 mps 722 mmHg 96%
    05:00 +14°C° 0 mm 2 mps 721 mmHg 96%
    06:00 +15°C° 0 mm 2 mps 721 mmHg 94%
    07:00 +16°C° 0 mm 2 mps 721 mmHg 92%
    08:00 +18°C° 0 mm 2 mps 721 mmHg 91%
    09:00 +18°C° 0.2 mm 3 mps 721 mmHg 89%
    10:00 +19°C° 0.2 mm 3 mps 721 mmHg 87%
    11:00 +20°C° 0.2 mm 3 mps 721 mmHg 85%
    12:00 +21°C° 0.4 mm 3 mps 721 mmHg 82%
    13:00 +22°C° 0.4 mm 3 mps 721 mmHg 80%
    14:00 +22°C° 0.4 mm 4 mps 720 mmHg 78%
    15:00 +22°C° 0.6 mm 3 mps 720 mmHg 80%
    16:00 +22°C° 0.6 mm 3 mps 720 mmHg 83%
    17:00 +22°C° 0.6 mm 3 mps 720 mmHg 85%
    18:00 +21°C° 0.4 mm 3 mps 720 mmHg 88%
    19:00 +19°C° 0.4 mm 2 mps 720 mmHg 91%
    20:00 +18°C° 0.4 mm 2 mps 720 mmHg 94%
    21:00 +18°C° 0.1 mm 2 mps 720 mmHg 94%
    22:00 +18°C° 0.1 mm 2 mps 720 mmHg 95%
    23:00 +17°C° 0.1 mm 2 mps 720 mmHg 96%

    Tomorrow, 18 July, Wednesday

    Time Temperature Precipitation Wind Pressure Humidity
    00:00 +17°C° 0 mm 2 mps 720 mmHg 96%
    01:00 +17°C° 0 mm 2 mps 720 mmHg 96%
    02:00 +17°C° 0 mm 2 mps 719 mmHg 96%
    03:00 +17°C° 0.1 mm 2 mps 719 mmHg 96%
    04:00 +17°C° 0.1 mm 2 mps 719 mmHg 96%
    05:00 +17°C° 0.1 mm 2 mps 719 mmHg 96%
    06:00 +18°C° 0.3 mm 2 mps 719 mmHg 95%
    07:00 +18°C° 0.3 mm 2 mps 719 mmHg 94%
    08:00 +18°C° 0.3 mm 2 mps 719 mmHg 93%
    09:00 +19°C° 0.4 mm 2 mps 719 mmHg 93%
    10:00 +19°C° 0.4 mm 2 mps 719 mmHg 93%
    11:00 +19°C° 0.4 mm 2 mps 720 mmHg 93%
    12:00 +20°C° 0.2 mm 2 mps 720 mmHg 90%
    13:00 +21°C° 0.2 mm 2 mps 720 mmHg 87%
    14:00 +21°C° 0.2 mm 3 mps 720 mmHg 84%
    15:00 +22°C° 0.3 mm 3 mps 720 mmHg 84%
    16:00 +23°C° 0.3 mm 2 mps 720 mmHg 84%
    17:00 +23°C° 0.3 mm 2 mps 720 mmHg 84%
    18:00 +21°C° 0.6 mm 2 mps 720 mmHg 87%
    19:00 +21°C° 0.6 mm 2 mps 720 mmHg 91%
    20:00 +20°C° 0.6 mm 2 mps 720 mmHg 94%
    21:00 +19°C° 0.3 mm 2 mps 720 mmHg 95%
    22:00 +19°C° 0.3 mm 2 mps 720 mmHg 96%
    23:00 +18°C° 0.3 mm 2 mps 721 mmHg 96%

    Day after tomorrow, 19 July, Thursday

    Time Temperature Precipitation Wind Pressure Humidity
    00:00 +18°C° 0.2 mm 2 mps 721 mmHg 97%
    01:00 +18°C° 0.2 mm 2 mps 721 mmHg 97%
    02:00 +18°C° 0.2 mm 2 mps 721 mmHg 97%
    03:00 +18°C° 0.1 mm 2 mps 721 mmHg 98%
    04:00 +19°C° 0.1 mm 2 mps 721 mmHg 98%
    05:00 +19°C° 0.1 mm 2 mps 722 mmHg 98%
    06:00 +19°C° 0.2 mm 2 mps 722 mmHg 97%
    07:00 +20°C° 0.2 mm 3 mps 722 mmHg 96%
    08:00 +21°C° 0.2 mm 3 mps 722 mmHg 95%
    09:00 +21°C° 0.2 mm 3 mps 722 mmHg 93%
    10:00 +22°C° 0.2 mm 4 mps 723 mmHg 91%
    11:00 +22°C° 0.2 mm 4 mps 723 mmHg 89%
    12:00 +23°C° 0.3 mm 4 mps 723 mmHg 85%
    13:00 +25°C° 0.3 mm 5 mps 723 mmHg 81%
    14:00 +25°C° 0.3 mm 5 mps 723 mmHg 77%
    15:00 +25°C° 0.2 mm 5 mps 723 mmHg 78%
    16:00 +25°C° 0.2 mm 4 mps 723 mmHg 79%
    17:00 +23°C° 0.2 mm 4 mps 723 mmHg 81%
    18:00 +22°C° 0.2 mm 4 mps 723 mmHg 84%
    19:00 +21°C° 0.2 mm 3 mps 724 mmHg 88%
    20:00 +20°C° 0.2 mm 3 mps 724 mmHg 91%
    21:00 +20°C° 0.1 mm 3 mps 724 mmHg 93%
    22:00 +19°C° 0.1 mm 3 mps 724 mmHg 94%
    23:00 +18°C° 0.1 mm 3 mps 725 mmHg 95%

    20 July, Friday

    Time Temperature Precipitation Wind Pressure Humidity
    00:00 +18°C° 0 mm 3 mps 725 mmHg 96%
    01:00 +18°C° 0 mm 3 mps 725 mmHg 96%
    02:00 +18°C° 0 mm 3 mps 724 mmHg 97%
    03:00 +18°C° 0 mm 3 mps 725 mmHg 97%
    04:00 +17°C° 0 mm 3 mps 725 mmHg 97%
    05:00 +17°C° 0 mm 3 mps 725 mmHg 97%
    06:00 +18°C° 0 mm 3 mps 725 mmHg 95%
    07:00 +19°C° 0 mm 3 mps 725 mmHg 93%
    08:00 +20°C° 0 mm 3 mps 725 mmHg 91%
    09:00 +20°C° 0.1 mm 3 mps 725 mmHg 88%
    10:00 +21°C° 0.1 mm 4 mps 726 mmHg 85%
    11:00 +22°C° 0.1 mm 4 mps 726 mmHg 82%
    12:00 +23°C° 0.1 mm 4 mps 726 mmHg 78%
    13:00 +23°C° 0.1 mm 4 mps 725 mmHg 73%
    14:00 +25°C° 0.1 mm 4 mps 725 mmHg 69%
    15:00 +25°C° 0.2 mm 4 mps 725 mmHg 70%
    16:00 +25°C° 0.2 mm 4 mps 725 mmHg 71%
    17:00 +25°C° 0.2 mm 3 mps 725 mmHg 72%
    18:00 +24°C° 0 mm 3 mps 725 mmHg 77%
    19:00 +21°C° 0 mm 2 mps 725 mmHg 82%
    20:00 +20°C° 0 mm 2 mps 725 mmHg 87%
    21:00 +19°C° 0 mm 2 mps 725 mmHg 89%
    22:00 +18°C° 0 mm 2 mps 725 mmHg 91%
    23:00 +17°C° 0 mm 2 mps 726 mmHg 92%

    21 July, Saturday

    Time Temperature Precipitation Wind Pressure Humidity
    00:00 +17°C° 0 mm 2 mps 725 mmHg 92%
    01:00 +17°C° 0 mm 2 mps 725 mmHg 93%
    02:00 +16°C° 0 mm 2 mps 725 mmHg 93%
    03:00 +16°C° 0 mm 2 mps 725 mmHg 93%
    04:00 +16°C° 0 mm 2 mps 725 mmHg 94%
    05:00 +16°C° 0 mm 2 mps 725 mmHg 94%
    06:00 +17°C° 0 mm 2 mps 726 mmHg 89%
    07:00 +19°C° 0 mm 2 mps 726 mmHg 85%
    08:00 +21°C° 0 mm 2 mps 726 mmHg 80%
    09:00 +23°C° 0 mm 2 mps 726 mmHg 74%
    10:00 +25°C° 0 mm 2 mps 726 mmHg 69%
    11:00 +26°C° 0 mm 3 mps 726 mmHg 63%
    12:00 +26°C° 0 mm 3 mps 726 mmHg 62%
    13:00 +27°C° 0 mm 2 mps 726 mmHg 61%
    14:00 +27°C° 0 mm 2 mps 726 mmHg 59%
    15:00 +27°C° 0.1 mm 2 mps 725 mmHg 62%
    16:00 +27°C° 0.1 mm 2 mps 725 mmHg 64%
    17:00 +26°C° 0.1 mm 2 mps 725 mmHg 67%
    18:00 +25°C° 0.1 mm 1 mps 725 mmHg 74%
    19:00 +23°C° 0.1 mm 1 mps 725 mmHg 80%
    20:00 +22°C° 0.1 mm 1 mps 725 mmHg 87%
    21:00 +21°C° 0 mm 1 mps 725 mmHg 88%
    22:00 +20°C° 0 mm 1 mps 725 mmHg 89%
    23:00 +19°C° 0 mm 1 mps 725 mmHg 91%

    22 July, Sunday

    Time Temperature Precipitation Wind Pressure Humidity
    00:00 +19°C° 0 mm 1 mps 725 mmHg 91%
    01:00 +19°C° 0 mm 1 mps 725 mmHg 92%
    02:00 +18°C° 0 mm 1 mps 724 mmHg 92%
    03:00 +18°C° 0 mm 1 mps 724 mmHg 93%
    04:00 +18°C° 0 mm 1 mps 724 mmHg 93%
    05:00 +18°C° 0 mm 1 mps 724 mmHg 93%
    06:00 +19°C° 0 mm 1 mps 724 mmHg 89%
    07:00 +21°C° 0 mm 1 mps 724 mmHg 85%
    08:00 +23°C° 0 mm 1 mps 724 mmHg 81%
    09:00 +24°C° 0.2 mm 1 mps 724 mmHg 77%
    10:00 +25°C° 0.2 mm 2 mps 724 mmHg 73%
    11:00 +26°C° 0.2 mm 2 mps 724 mmHg 68%
    12:00 +27°C° 0.4 mm 2 mps 724 mmHg 67%
    13:00 +27°C° 0.4 mm 2 mps 723 mmHg 66%
    14:00 +27°C° 0.4 mm 2 mps 723 mmHg 65%
    15:00 +27°C° 0.5 mm 2 mps 723 mmHg 68%
    16:00 +27°C° 0.5 mm 2 mps 723 mmHg 70%
    17:00 +26°C° 0.5 mm 2 mps 723 mmHg 73%
    18:00 +25°C° 0.4 mm 2 mps 723 mmHg 78%
    19:00 +23°C° 0.4 mm 2 mps 723 mmHg 82%
    20:00 +21°C° 0.4 mm 2 mps 722 mmHg 87%
    21:00 +20°C° 0.3 mm 2 mps 723 mmHg 89%
    22:00 +19°C° 0.3 mm 2 mps 723 mmHg 90%
    23:00 +20°C° 0.3 mm 1 mps 723 mmHg 91%
    Show more